CFG4XD EDDF-LDSP

Flight info

Callsign CFG4XD
Flight time 1h 29m
Altitude 35000
Route CINDY2D CINDY Z74 LAMPU DCT NOMBO Y161 MAH DCT VAVOR DCT RADIZ DCT GIMIX DCT ALIVO DCT NUPSO
Aircraft A21N/M-SBDE3FGHIJ1J4J7LORVWXYZ/SB2D1G1

Departure

Time 2026-05-07 23:37
Airport Frankfurt Main Airport (EDDF)

Arrival

Time 2026-05-08 01:07
Airport Split Saint Jerome Airport (LDSP)
Time Latitude Longitude Altitude Speed Heading
2026-05-07 23:11 50.04436 8.56327 363 ft 0 kts 167°
2026-05-07 23:27 50.04450 8.56322 366 ft 3 kts 168°
2026-05-07 23:28 50.04467 8.56316 366 ft 3 kts 169°
2026-05-07 23:28 50.04486 8.56315 364 ft 3 kts 207°
2026-05-07 23:28 50.04500 8.56332 368 ft 3 kts 235°
2026-05-07 23:28 50.04510 8.56358 364 ft 3 kts 247°
2026-05-07 23:29 50.04516 8.56379 365 ft 1 kts 249°
2026-05-07 23:29 50.04516 8.56380 365 ft 0 kts 249°
2026-05-07 23:31 50.04504 8.56331 368 ft 8 kts 249°
2026-05-07 23:31 50.04481 8.56238 366 ft 11 kts 249°
2026-05-07 23:31 50.04450 8.56111 366 ft 13 kts 249°
2026-05-07 23:32 50.04385 8.56036 366 ft 13 kts 174°
2026-05-07 23:32 50.04293 8.56065 366 ft 14 kts 195°
2026-05-07 23:32 50.04233 8.55941 365 ft 14 kts 233°
2026-05-07 23:32 50.04139 8.55947 357 ft 15 kts 160°
2026-05-07 23:33 50.04042 8.55942 360 ft 16 kts 239°
2026-05-07 23:33 50.04002 8.55770 356 ft 18 kts 252°
2026-05-07 23:33 50.03961 8.55584 359 ft 19 kts 250°
2026-05-07 23:33 50.03913 8.55384 355 ft 20 kts 249°
2026-05-07 23:34 50.03863 8.55173 358 ft 21 kts 251°
2026-05-07 23:34 50.03810 8.54949 352 ft 23 kts 249°
2026-05-07 23:34 50.03752 8.54708 356 ft 25 kts 249°
2026-05-07 23:34 50.03690 8.54445 351 ft 27 kts 249°
2026-05-07 23:35 50.03623 8.54170 348 ft 27 kts 250°
2026-05-07 23:35 50.03557 8.53893 348 ft 28 kts 250°
2026-05-07 23:35 50.03487 8.53599 351 ft 29 kts 249°
2026-05-07 23:35 50.03392 8.53433 341 ft 10 kts 161°
2026-05-07 23:36 50.03362 8.53487 338 ft 7 kts 121°
2026-05-07 23:36 50.03335 8.53557 351 ft 5 kts 120°
2026-05-07 23:36 50.03318 8.53610 352 ft 6 kts 111°
2026-05-07 23:36 50.03315 8.53676 344 ft 7 kts 77°
2026-05-07 23:37 50.03381 8.53964 350 ft 59 kts 70°
2026-05-07 23:37 50.03605 8.54888 355 ft 123 kts 69°
2026-05-07 23:37 50.03986 8.56385 419 ft 168 kts 65°
2026-05-07 23:37 50.04439 8.58043 987 ft 174 kts 65°
2026-05-07 23:38 50.04921 8.59793 1647 ft 180 kts 67°
2026-05-07 23:38 50.05247 8.60998 2163 ft 184 kts 68°
2026-05-07 23:38 50.05887 8.63670 2827 ft 210 kts 71°
2026-05-07 23:38 50.06352 8.65971 3275 ft 236 kts 73°
2026-05-07 23:39 50.06797 8.68500 4087 ft 243 kts 76°
2026-05-07 23:39 50.07057 8.70196 4848 ft 241 kts 76°
2026-05-07 23:39 50.07316 8.72799 5692 ft 248 kts 89°
2026-05-07 23:39 50.06890 8.75372 6530 ft 249 kts 125°
2026-05-07 23:40 50.05590 8.77075 7382 ft 247 kts 160°
2026-05-07 23:40 50.03905 8.77602 8138 ft 254 kts 173°
2026-05-07 23:40 50.02192 8.78517 8596 ft 275 kts 144°
2026-05-07 23:40 50.00770 8.80599 9356 ft 284 kts 134°
2026-05-07 23:41 49.99410 8.82888 10223 ft 289 kts 134°
2026-05-07 23:41 49.97971 8.85212 10732 ft 308 kts 136°
2026-05-07 23:41 49.96391 8.87633 11096 ft 330 kts 137°
2026-05-07 23:41 49.94689 8.90151 11666 ft 343 kts 137°
2026-05-07 23:42 49.92951 8.92681 12430 ft 349 kts 138°
2026-05-07 23:42 49.91151 8.95278 13271 ft 354 kts 139°
2026-05-07 23:42 49.89334 8.97886 14094 ft 359 kts 139°
2026-05-07 23:42 49.87482 9.00536 14869 ft 363 kts 139°
2026-05-07 23:43 49.85613 9.03205 15644 ft 367 kts 139°
2026-05-07 23:43 49.83714 9.05911 16417 ft 371 kts 139°
2026-05-07 23:43 49.81808 9.08626 17219 ft 373 kts 139°
2026-05-07 23:43 49.79875 9.11374 17916 ft 378 kts 139°
2026-05-07 23:44 49.77952 9.14103 18567 ft 383 kts 139°
2026-05-07 23:44 49.75988 9.16889 19162 ft 387 kts 139°
2026-05-07 23:44 49.74056 9.19817 19775 ft 391 kts 135°
2026-05-07 23:44 49.72193 9.22925 20398 ft 395 kts 134°
2026-05-07 23:45 49.70359 9.26152 21016 ft 399 kts 133°
2026-05-07 23:45 49.68540 9.29424 21611 ft 402 kts 132°
2026-05-07 23:45 49.66738 9.32674 22181 ft 406 kts 132°
2026-05-07 23:45 49.64887 9.35998 22745 ft 409 kts 133°
2026-05-07 23:46 49.62964 9.39272 23294 ft 412 kts 138°
2026-05-07 23:46 49.60810 9.42070 23777 ft 413 kts 146°
2026-05-07 23:46 49.58426 9.44589 24234 ft 415 kts 149°
2026-05-07 23:46 49.55967 9.46967 24624 ft 418 kts 150°
2026-05-07 23:47 49.53483 9.49249 24982 ft 422 kts 152°
2026-05-07 23:47 49.50938 9.51534 25407 ft 424 kts 152°
2026-05-07 23:47 49.48379 9.53820 25796 ft 427 kts 152°
2026-05-07 23:47 49.45793 9.56135 26212 ft 430 kts 152°
2026-05-07 23:48 49.43205 9.58464 26600 ft 432 kts 152°
2026-05-07 23:48 49.40596 9.60821 26978 ft 435 kts 152°
2026-05-07 23:48 49.38011 9.63162 27360 ft 437 kts 151°
2026-05-07 23:48 49.35407 9.65627 27701 ft 441 kts 147°
2026-05-07 23:49 49.32981 9.68589 28052 ft 445 kts 140°
2026-05-07 23:49 49.30720 9.71774 28400 ft 448 kts 138°
2026-05-07 23:49 49.28469 9.75114 28722 ft 451 kts 137°
2026-05-07 23:49 49.26244 9.78509 29063 ft 454 kts 136°
2026-05-07 23:50 49.24003 9.81964 29362 ft 457 kts 136°
2026-05-07 23:50 49.21763 9.85418 29644 ft 459 kts 136°
2026-05-07 23:50 49.19503 9.88888 30005 ft 460 kts 137°
2026-05-07 23:50 49.17235 9.92352 30405 ft 459 kts 137°
2026-05-07 23:51 49.14992 9.95764 30751 ft 459 kts 137°
2026-05-07 23:51 49.12730 9.99192 31076 ft 459 kts 137°
2026-05-07 23:51 49.10466 10.02614 31393 ft 459 kts 137°
2026-05-07 23:51 49.08187 10.06052 31686 ft 458 kts 137°
2026-05-07 23:52 49.05909 10.09460 31982 ft 459 kts 139°
2026-05-07 23:52 49.03590 10.12819 32277 ft 459 kts 139°
2026-05-07 23:52 49.01242 10.16147 32582 ft 459 kts 140°
2026-05-07 23:52 48.98920 10.19409 32830 ft 460 kts 140°
2026-05-07 23:53 48.96556 10.22718 33082 ft 460 kts 140°
2026-05-07 23:53 48.94223 10.25986 33387 ft 460 kts 140°
2026-05-07 23:53 48.91844 10.29329 33674 ft 460 kts 140°
2026-05-07 23:53 48.89526 10.32591 33942 ft 460 kts 140°
2026-05-07 23:54 48.87177 10.35898 34172 ft 460 kts 140°
2026-05-07 23:54 48.84822 10.39212 34404 ft 459 kts 140°
2026-05-07 23:54 48.82488 10.42547 34615 ft 459 kts 139°
2026-05-07 23:54 48.80268 10.45939 34830 ft 460 kts 137°
2026-05-07 23:55 48.78061 10.49461 35002 ft 460 kts 136°
2026-05-07 23:55 48.75893 10.52981 35096 ft 463 kts 136°
2026-05-07 23:55 48.71498 10.60118 35113 ft 464 kts 136°
2026-05-07 23:56 48.67071 10.67224 35102 ft 463 kts 136°
2026-05-07 23:56 48.62648 10.74257 35102 ft 463 kts 137°
2026-05-07 23:57 48.58182 10.81334 35101 ft 463 kts 136°
2026-05-07 23:57 48.53751 10.88407 35091 ft 463 kts 136°
2026-05-07 23:58 48.49349 10.95441 35102 ft 464 kts 137°
2026-05-07 23:58 48.44876 11.02472 35103 ft 464 kts 137°
2026-05-07 23:59 48.40378 11.09464 35101 ft 464 kts 137°
2026-05-07 23:59 48.35901 11.16406 35097 ft 464 kts 137°
2026-05-08 00:00 48.31399 11.23376 35089 ft 464 kts 137°
2026-05-08 00:00 48.26985 11.30466 35082 ft 467 kts 130°
2026-05-08 00:01 48.23408 11.38688 35082 ft 470 kts 123°
2026-05-08 00:01 48.20121 11.47127 35081 ft 471 kts 122°
2026-05-08 00:02 48.16858 11.55661 35086 ft 471 kts 122°
2026-05-08 00:02 48.13580 11.64160 35089 ft 471 kts 122°
2026-05-08 00:03 48.10303 11.72577 35087 ft 472 kts 123°
2026-05-08 00:03 48.06979 11.81071 35089 ft 472 kts 123°
2026-05-08 00:04 48.03654 11.89538 35090 ft 472 kts 123°
2026-05-08 00:04 48.00342 11.97949 35090 ft 471 kts 123°
2026-05-08 00:05 47.96999 12.06412 35099 ft 473 kts 123°
2026-05-08 00:05 47.93459 12.14583 35084 ft 468 kts 134°
2026-05-08 00:06 47.88830 12.21301 35095 ft 464 kts 142°
2026-05-08 00:06 47.83903 12.27535 35086 ft 463 kts 144°
2026-05-08 00:07 47.78963 12.33619 35088 ft 463 kts 144°
2026-05-08 00:07 47.73993 12.39758 35093 ft 464 kts 144°
2026-05-08 00:08 47.69039 12.45904 35095 ft 464 kts 144°
2026-05-08 00:08 47.64110 12.52019 35097 ft 464 kts 144°
2026-05-08 00:09 47.59045 12.57941 35103 ft 462 kts 147°
2026-05-08 00:09 47.53859 12.63549 35102 ft 462 kts 148°
2026-05-08 00:10 47.48634 12.69145 35099 ft 464 kts 148°
2026-05-08 00:10 47.43444 12.74739 35097 ft 464 kts 148°
2026-05-08 00:11 47.38244 12.80363 35102 ft 464 kts 148°
2026-05-08 00:11 47.33025 12.86002 35098 ft 464 kts 148°
2026-05-08 00:12 47.27839 12.91589 35080 ft 464 kts 149°
2026-05-08 00:12 47.22619 12.97197 35093 ft 463 kts 149°
2026-05-08 00:13 47.17410 13.02780 35098 ft 463 kts 149°
2026-05-08 00:13 47.12189 13.08361 35093 ft 463 kts 149°
2026-05-08 00:14 47.07002 13.13890 35093 ft 463 kts 149°
2026-05-08 00:14 47.01790 13.19435 35088 ft 462 kts 149°
2026-05-08 00:15 46.96615 13.24928 35089 ft 460 kts 149°
2026-05-08 00:15 46.91409 13.30436 35088 ft 460 kts 149°
2026-05-08 00:16 46.86242 13.35891 35091 ft 460 kts 149°
2026-05-08 00:16 46.81048 13.41362 35086 ft 460 kts 149°
2026-05-08 00:17 46.75843 13.46830 35087 ft 459 kts 149°
2026-05-08 00:17 46.70638 13.52288 35080 ft 459 kts 150°
2026-05-08 00:18 46.65477 13.57683 35091 ft 459 kts 150°
2026-05-08 00:18 46.60290 13.63094 35090 ft 459 kts 150°
2026-05-08 00:19 46.55086 13.68509 35079 ft 459 kts 150°
2026-05-08 00:19 46.49922 13.73886 35091 ft 459 kts 150°
2026-05-08 00:20 46.44740 13.79308 35081 ft 458 kts 150°
2026-05-08 00:20 46.39559 13.84726 35085 ft 458 kts 150°
2026-05-08 00:21 46.34410 13.90093 35082 ft 458 kts 150°
2026-05-08 00:21 46.29220 13.95486 35078 ft 459 kts 150°
2026-05-08 00:22 46.24023 14.00873 35076 ft 459 kts 150°
2026-05-08 00:22 46.18832 14.06242 35078 ft 458 kts 150°
2026-05-08 00:23 46.13665 14.11573 35078 ft 459 kts 151°
2026-05-08 00:23 46.08452 14.16938 35060 ft 459 kts 151°
2026-05-08 00:24 46.04119 14.21389 35077 ft 460 kts 152°
2026-05-08 00:24 45.98900 14.26737 35079 ft 460 kts 152°
2026-05-08 00:25 45.93678 14.32077 35084 ft 460 kts 152°
2026-05-08 00:25 45.88459 14.37401 35085 ft 461 kts 152°
2026-05-08 00:26 45.83257 14.42695 35078 ft 461 kts 152°
2026-05-08 00:26 45.78021 14.48012 35082 ft 461 kts 152°
2026-05-08 00:27 45.72782 14.53318 35084 ft 461 kts 152°
2026-05-08 00:27 45.67565 14.58590 35082 ft 461 kts 152°
2026-05-08 00:28 45.62324 14.63874 35054 ft 461 kts 152°
2026-05-08 00:28 45.57064 14.69164 35098 ft 462 kts 152°
2026-05-08 00:29 45.51744 14.74299 35094 ft 457 kts 158°
2026-05-08 00:29 45.46290 14.78866 35069 ft 457 kts 158°
2026-05-08 00:30 45.40781 14.83402 35070 ft 457 kts 158°
2026-05-08 00:30 45.35258 14.87929 35066 ft 458 kts 158°
2026-05-08 00:31 45.29754 14.92429 35079 ft 458 kts 158°
2026-05-08 00:31 45.24221 14.96942 35079 ft 458 kts 158°
2026-05-08 00:32 45.18686 15.01446 35082 ft 459 kts 158°
2026-05-08 00:32 45.13180 15.05916 35079 ft 459 kts 158°
2026-05-08 00:33 45.07630 15.10412 35089 ft 459 kts 158°
2026-05-08 00:33 45.02074 15.14903 35086 ft 459 kts 158°
2026-05-08 00:34 44.96539 15.19367 34891 ft 457 kts 159°
2026-05-08 00:34 44.93778 15.21591 34274 ft 457 kts 159°
2026-05-08 00:34 44.91032 15.23798 33571 ft 457 kts 159°
2026-05-08 00:35 44.88289 15.26004 33053 ft 452 kts 159°
2026-05-08 00:35 44.85563 15.28194 32521 ft 447 kts 159°
2026-05-08 00:35 44.82857 15.30364 31965 ft 443 kts 159°
2026-05-08 00:35 44.80183 15.32504 31432 ft 440 kts 159°
2026-05-08 00:36 44.77564 15.34598 30880 ft 437 kts 158°
2026-05-08 00:36 44.74928 15.36702 30366 ft 434 kts 158°
2026-05-08 00:36 44.72307 15.38793 29729 ft 432 kts 158°
2026-05-08 00:36 44.69697 15.40875 29195 ft 427 kts 158°
2026-05-08 00:37 44.67125 15.42924 28646 ft 423 kts 158°
2026-05-08 00:37 44.64574 15.44955 28121 ft 419 kts 158°
2026-05-08 00:37 44.62045 15.46965 27564 ft 415 kts 158°
2026-05-08 00:38 44.57071 15.50910 26515 ft 410 kts 157°
2026-05-08 00:38 44.54598 15.52869 25972 ft 407 kts 157°
2026-05-08 00:38 44.52128 15.54823 25443 ft 405 kts 157°
2026-05-08 00:38 44.49678 15.56760 24913 ft 403 kts 156°
2026-05-08 00:39 44.47259 15.58671 24382 ft 401 kts 156°
2026-05-08 00:39 44.44839 15.60581 23854 ft 398 kts 156°
2026-05-08 00:39 44.42427 15.62483 23269 ft 396 kts 156°
2026-05-08 00:39 44.40029 15.64372 22719 ft 392 kts 156°
2026-05-08 00:40 44.37666 15.66234 22181 ft 387 kts 155°
2026-05-08 00:40 44.35329 15.68072 21660 ft 383 kts 155°
2026-05-08 00:40 44.33037 15.69873 21156 ft 379 kts 155°
2026-05-08 00:40 44.30739 15.71676 20651 ft 376 kts 155°
2026-05-08 00:41 44.28469 15.73456 20112 ft 372 kts 155°
2026-05-08 00:41 44.26216 15.75221 19615 ft 369 kts 154°
2026-05-08 00:41 44.23986 15.76965 19107 ft 365 kts 154°
2026-05-08 00:41 44.21784 15.78687 18616 ft 363 kts 154°
2026-05-08 00:42 44.19584 15.80407 18066 ft 360 kts 154°
2026-05-08 00:42 44.17435 15.82086 17553 ft 355 kts 154°
2026-05-08 00:42 44.15288 15.83761 17074 ft 350 kts 154°
2026-05-08 00:42 44.13172 15.85383 16594 ft 345 kts 155°
2026-05-08 00:43 44.11063 15.86918 16116 ft 340 kts 156°
2026-05-08 00:43 44.08969 15.88420 15657 ft 336 kts 156°
2026-05-08 00:43 44.06904 15.89897 15201 ft 332 kts 155°
2026-05-08 00:43 44.04860 15.91359 14749 ft 328 kts 155°
2026-05-08 00:44 44.02836 15.92805 14261 ft 325 kts 155°
2026-05-08 00:44 44.00860 15.94218 13807 ft 322 kts 155°
2026-05-08 00:44 43.98870 15.95639 13328 ft 319 kts 155°
2026-05-08 00:44 43.96912 15.97038 12889 ft 314 kts 155°
2026-05-08 00:45 43.94977 15.98418 12467 ft 311 kts 155°
2026-05-08 00:45 43.93051 15.99791 12030 ft 309 kts 155°
2026-05-08 00:45 43.91156 16.01141 11608 ft 306 kts 155°
2026-05-08 00:45 43.89292 16.02468 11190 ft 304 kts 155°
2026-05-08 00:46 43.87345 16.03595 10811 ft 297 kts 168°
2026-05-08 00:46 43.85305 16.03839 10538 ft 294 kts 186°
2026-05-08 00:46 43.83326 16.03457 10258 ft 293 kts 192°
2026-05-08 00:46 43.81323 16.02930 9963 ft 291 kts 192°
2026-05-08 00:47 43.79361 16.02397 9695 ft 282 kts 192°
2026-05-08 00:47 43.77464 16.01885 9380 ft 275 kts 192°
2026-05-08 00:47 43.75592 16.01386 9109 ft 273 kts 192°
2026-05-08 00:47 43.73726 16.00891 8842 ft 274 kts 192°
2026-05-08 00:48 43.71875 16.00404 8582 ft 273 kts 192°
2026-05-08 00:48 43.70013 15.99916 8301 ft 270 kts 192°
2026-05-08 00:48 43.68169 15.99434 8029 ft 270 kts 191°
2026-05-08 00:48 43.66312 15.98949 7854 ft 273 kts 191°
2026-05-08 00:49 43.64452 15.98465 7754 ft 266 kts 191°
2026-05-08 00:49 43.62646 15.97994 7617 ft 262 kts 191°
2026-05-08 00:49 43.60877 15.97533 7489 ft 263 kts 191°
2026-05-08 00:49 43.59083 15.97066 7377 ft 263 kts 191°
2026-05-08 00:50 43.57282 15.96598 7246 ft 262 kts 191°
2026-05-08 00:50 43.55485 15.96131 7121 ft 262 kts 191°
2026-05-08 00:50 43.53693 15.95666 6994 ft 261 kts 191°
2026-05-08 00:50 43.51901 15.95200 6866 ft 261 kts 190°
2026-05-08 00:51 43.50145 15.94710 6741 ft 260 kts 195°
2026-05-08 00:51 43.48480 15.93697 6610 ft 262 kts 213°
2026-05-08 00:51 43.47099 15.92060 6473 ft 263 kts 223°
2026-05-08 00:51 43.45813 15.90258 6357 ft 265 kts 225°
2026-05-08 00:52 43.44553 15.88447 6219 ft 263 kts 224°
2026-05-08 00:52 43.43315 15.86678 6068 ft 251 kts 224°
2026-05-08 00:52 43.42100 15.84948 5962 ft 252 kts 224°
2026-05-08 00:52 43.40875 15.83216 5847 ft 252 kts 223°
2026-05-08 00:53 43.39654 15.81495 5727 ft 252 kts 224°
2026-05-08 00:53 43.38452 15.79801 5580 ft 242 kts 223°
2026-05-08 00:53 43.37280 15.78152 5486 ft 241 kts 224°
2026-05-08 00:53 43.36118 15.76519 5372 ft 241 kts 223°
2026-05-08 00:54 43.34948 15.74878 5260 ft 240 kts 223°
2026-05-08 00:54 43.33728 15.73313 5141 ft 239 kts 214°
2026-05-08 00:54 43.32272 15.72304 5028 ft 233 kts 191°
2026-05-08 00:54 43.30679 15.72159 4907 ft 229 kts 168°
2026-05-08 00:55 43.29226 15.72861 4805 ft 214 kts 148°
2026-05-08 00:55 43.28087 15.74087 4490 ft 203 kts 136°
2026-05-08 00:55 43.27104 15.75415 4370 ft 201 kts 134°
2026-05-08 00:55 43.26121 15.76781 4335 ft 202 kts 134°
2026-05-08 00:56 43.25255 15.78295 4291 ft 203 kts 121°
2026-05-08 00:56 43.24752 15.80091 4232 ft 204 kts 102°
2026-05-08 00:56 43.24733 15.82039 4184 ft 204 kts 83°
2026-05-08 00:56 43.25206 15.83831 4103 ft 200 kts 62°
2026-05-08 00:57 43.26059 15.85338 4025 ft 201 kts 50°
2026-05-08 00:57 43.27037 15.86716 3932 ft 202 kts 48°
2026-05-08 00:57 43.28027 15.88064 3837 ft 202 kts 49°
2026-05-08 00:57 43.29004 15.89398 3708 ft 192 kts 49°
2026-05-08 00:58 43.29932 15.90676 3636 ft 189 kts 49°
2026-05-08 00:58 43.30855 15.91968 3559 ft 190 kts 49°
2026-05-08 00:58 43.31767 15.93265 3467 ft 191 kts 49°
2026-05-08 00:58 43.32688 15.94586 3383 ft 191 kts 49°
2026-05-08 00:59 43.33609 15.95909 3281 ft 191 kts 49°
2026-05-08 00:59 43.34530 15.97236 3198 ft 191 kts 49°
2026-05-08 00:59 43.35436 15.98541 3110 ft 191 kts 50°
2026-05-08 00:59 43.36357 15.99868 3014 ft 191 kts 50°
2026-05-08 01:00 43.37270 16.01184 2926 ft 189 kts 51°
2026-05-08 01:00 43.38163 16.02477 2838 ft 188 kts 51°
2026-05-08 01:00 43.39051 16.03799 2790 ft 189 kts 52°
2026-05-08 01:00 43.39919 16.05133 2677 ft 182 kts 53°
2026-05-08 01:01 43.40735 16.06431 2530 ft 177 kts 54°
2026-05-08 01:01 43.41511 16.07713 2388 ft 169 kts 56°
2026-05-08 01:01 43.42209 16.08900 2182 ft 152 kts 57°
2026-05-08 01:01 43.42840 16.10003 2000 ft 143 kts 58°
2026-05-08 01:02 43.43434 16.11057 1998 ft 141 kts 58°
2026-05-08 01:02 43.44037 16.12122 1915 ft 140 kts 57°
2026-05-08 01:02 43.44662 16.13150 1806 ft 140 kts 55°
2026-05-08 01:02 43.45300 16.14156 1758 ft 139 kts 55°
2026-05-08 01:03 43.45909 16.15180 1709 ft 137 kts 58°
2026-05-08 01:03 43.46471 16.16214 1605 ft 135 kts 56°
2026-05-08 01:03 43.47006 16.17276 1540 ft 135 kts 57°
2026-05-08 01:03 43.47532 16.18339 1410 ft 136 kts 56°
2026-05-08 01:04 43.48110 16.19374 1253 ft 136 kts 51°
2026-05-08 01:04 43.48713 16.20388 1104 ft 136 kts 52°
2026-05-08 01:04 43.49265 16.21437 1019 ft 137 kts 54°
2026-05-08 01:04 43.49819 16.22507 968 ft 137 kts 53°
2026-05-08 01:05 43.50412 16.23534 846 ft 137 kts 50°
2026-05-08 01:05 43.50998 16.24576 726 ft 137 kts 53°
2026-05-08 01:05 43.51577 16.25624 562 ft 137 kts 52°
2026-05-08 01:05 43.52158 16.26650 397 ft 138 kts 52°
2026-05-08 01:06 43.52738 16.27707 253 ft 139 kts 53°
2026-05-08 01:06 43.53321 16.28762 101 ft 137 kts 52°
2026-05-08 01:06 43.53829 16.29676 84 ft 96 kts 52°
2026-05-08 01:06 43.54137 16.30235 73 ft 59 kts 52°
2026-05-08 01:07 43.54330 16.30582 57 ft 37 kts 52°
2026-05-08 01:07 43.54482 16.30852 57 ft 34 kts 53°
2026-05-08 01:07 43.54561 16.31042 56 ft 5 kts 56°
2026-05-08 01:07 43.54573 16.31040 57 ft 2 kts 308°
2026-05-08 01:08 43.54553 16.30979 58 ft 11 kts 234°
2026-05-08 01:08 43.54500 16.30884 56 ft 14 kts 232°
2026-05-08 01:08 43.54435 16.30766 56 ft 16 kts 233°
2026-05-08 01:08 43.54360 16.30632 63 ft 20 kts 233°
2026-05-08 01:09 43.54273 16.30473 65 ft 21 kts 233°
2026-05-08 01:09 43.54190 16.30324 63 ft 19 kts 232°
2026-05-08 01:09 43.54113 16.30196 71 ft 18 kts 221°
2026-05-08 01:09 43.54009 16.30112 72 ft 15 kts 210°
2026-05-08 01:10 43.53901 16.30044 64 ft 20 kts 218°
2026-05-08 01:10 43.53811 16.29888 71 ft 18 kts 232°
2026-05-08 01:10 43.53759 16.29804 63 ft 5 kts 205°
2026-05-08 01:10 43.53748 16.29814 71 ft 3 kts 131°
2026-05-08 01:11 43.53738 16.29837 65 ft 5 kts 115°
2026-05-08 01:11 43.53729 16.29863 64 ft 2 kts 114°
2026-05-08 01:11 43.53728 16.29868 65 ft 0 kts 114°